Find Starlink 5296

NORAD ID: 55312 Int'l Des: 2023-010 Owner: SPXS Country: US Constellation: starlink operational
LEOCIRCULAR

現在のビュー

3D地球を読み込み中...

Starlink 5296について

説明を読み込み中...

次回通過

Passes for default location (London). Set your location on the main map for personalized predictions.

高度履歴

Loading altitude history...

軌道要素

1 55312U 23010AV 26150.46859738 -.00001727 00000-0 -13699-3 0 9996
2 55312 69.9989 158.0817 0003449 270.6437 89.4327 14.98322351186889
Epoch: May 30, 2026 • Age: 16 hours

現在のステータス

高度 576.7 km
速度 7.57 km/s
衛星直下点 -13.66°S, 145.35°W
打ち上げ日 Jan 19, 2023
運用期間 3.3 years
タイプ internet

技術仕様

分類 Payload
質量 305.00 kg
乾燥質量 290.00 kg
総質量 305.00 kg
長さ 0.20 m
直径 2.80 m
スパン 9.00 m
形状 Box + pan
製造者 SPXS
バスタイプ Starlink
フェーズステータス In Orbit
所有者/国 SPXS/US

Most Searched